Regional Weather Roundup
Issued by NWS Charleston, SC

Current Version | Previous Version | Text Only | Print | Product List | Glossary Off
Versions: 1 2 3 4 5 6 7 8 9 10 11 12 13 14 15 16 17 18 19 20 21 22 23 24 25 26 27 28 29 30 31 32 33 34 35 36 37 38 39 40 41 42 43 44 45 46 47 48 49 50

000
ASUS42 KCHS 300627
RWRCHS

REGIONAL WEATHER ROUNDUP
NATIONAL WEATHER SERVICE CHARLESTON SC
200 AM EDT SAT MAY 30 2015

NOTE: "FAIR" INDICATES FEW OR NO CLOUDS BELOW 12,000 FEET WITH NO
SIGNIFICANT WEATHER AND/OR OBSTRUCTIONS TO VISIBILITY.

NOT ALL STATIONS ARE QUALITY CONTROLLED BY THE NATIONAL
WEATHER SERVICE. USE DATA WITH CAUTION...ESPECIALLY
DEWPOINT OBSERVATIONS.

SCZ027-030-031-034>040-042>050-300700-
...SOUTHEAST SOUTH CAROLINA...

CITY           SKY/WX    TMP DP  RH WIND       PRES   REMARKS
N CHARLESTON   PTCLDY    70  67  90 NE3       30.15F
6HR MIN TEMP:  70; 6HR MAX TEMP:  77;

WATERFRONT PAR   N/A     76  71  84 E12       30.12F
MOUNT PLEASANT LGT RAIN  70  68  94 CALM      30.15S
JOHNS ISLAND   PTCLDY    73  72  94 E7        30.15S
PINOPOLIS      NOT AVBL
MONCKS CORNER  FAIR      68  64  88 CALM      30.15F
SUMMERVILLE    FAIR      64  64 100 CALM      30.16S
BEAUFORT MCAS  CLEAR     71  68  90 CALM      30.14F
6HR MIN TEMP:  71; 6HR MAX TEMP:  78;

BEAUFORT ARPT  FAIR      70  70 100 CALM      30.13F
HILTON HEAD IS CLEAR     75  72  88 NE5       30.14F
WALTERBORO     CLEAR     64  63  94 CALM      30.16S
ALLENDALE      FAIR      70  68  94 CALM      30.15S

...SOUTHERN MIDLANDS AND PEE DEE...

CITY           SKY/WX    TMP DP  RH WIND       PRES   REMARKS
GEORGETOWN     NOT AVBL
KINGSTREE      NOT AVBL
ORANGEBURG     CLEAR     70  65  84 CALM      30.16F
6HR MIN TEMP:  68; 6HR MAX TEMP:  79;

BARNWELL       FAIR      68  66  94 CALM      30.17S
AIKEN          FAIR      66  61  82 CALM      30.21S
MANNING        FAIR      64  61  88 CALM      30.16F
COLUMBIA       PTCLDY    73  64  73 CALM      30.16F
6HR MIN TEMP:  72; 6HR MAX TEMP:  82;

SUMTER         CLEAR     69  67  92 SE1       30.15F
6HR MIN TEMP:  69; 6HR MAX TEMP:  80;

FLORENCE       CLEAR     69  66  90 SE3       30.17F
6HR MIN TEMP:  69; 6HR MAX TEMP:  82;

MYRTLE BEACH   PTCLDY    75  68  78 E7        30.18F
N MYRTLE BEACH PTCLDY    75  69  81 VRB6      30.16F
6HR MIN TEMP:  75; 6HR MAX TEMP:  77;


$$

GAZ063-065-086>088-099>101-113>116-118-119-134>141-150-300700-
...SOUTHEAST GEORGIA...

CITY           SKY/WX    TMP DP  RH WIND       PRES   REMARKS
SAVANNAH ARPT  CLEAR     71  67  87 E5        30.14F
6HR MIN TEMP:  71; 6HR MAX TEMP:  77;

HUNTER AAF     PTCLDY    73  70  90 N1        30.11F
6HR MIN TEMP:  73; 6HR MAX TEMP:  77;

FORT STEWART   CLEAR     67  65  93 CALM      30.11F
6HR MIN TEMP:  67; 6HR MAX TEMP:  78;

STATESBORO     CLEAR     66  32  28 CALM      30.14F
SYLVANIA       CLEAR     68  68  99 CALM      30.16S
CLAXTON        FAIR      64  64 100 CALM      30.14F

...CSRA...CENTRAL AND FAR SOUTHEAST GEORGIA...

CITY           SKY/WX    TMP DP  RH WIND       PRES   REMARKS
THOMSON        PTCLDY    70  69  98 CALM      30.21S
AUGUSTA-BUSH   CLEAR     68  65  90 CALM      30.15F
6HR MIN TEMP:  68; 6HR MAX TEMP:  81;

AUGUSTA-DANIEL CLEAR     73  65  75 SE7       30.17S
SWAINSBORO     MOCLDY    72  72 100 E3        30.15F
VIDALIA        PTCLDY    72  68  88 CALM      30.14F
EASTMAN        FAIR      71  71 100 CALM      30.16S
HAZLEHURST     CLOUDY    74  69  83 CALM      30.12F
ALMA           MOCLDY    71  66  84 CALM      30.12F
6HR MIN TEMP:  70; 6HR MAX TEMP:  79;

WAYCROSS       PTCLDY    71  69  95 CALM      30.12S
JESUP          FAIR      72  68  88 CALM      30.13S
BAXLEY         FAIR      72  68  88 CALM      30.13S
BRUNSWICK        N/A     68  64  88 CALM      30.13S VSB 1/4
SAINT SIMONS   NOT AVBL

$$

SCZ027-028-034-036>038-045-046-048>050-GAZ119-141-300700-
...LAKE AND SUPPLEMENTAL COASTAL OBSERVATIONS...

STATION/POSITION TIME  TEMP    WIND        PRES    WAVE   SWELL
                       AIR SEA DIR/SP/G            HT/PER HT/PER/DIR
                 (UTC) (F)     (DEG/KT/KT) (MB)    (FT/S) (FT/S/D)
UPR LAKE MARION  NOT AVBL
WINYAH BAY       0500   75     100/  6     1021.0S
LAKE MURRAY      0500   74     150/  2/  7 1021.0F
ACE BASIN NERRS  NOT AVBL
FORT PULASKI     0600   77 79   70/ 12/ 14 1020.7F
SAPELO ISLAND    0600   69      50/  1     1020.0S

$$

ANZ835-935-AMZ111-154-330-350-352-354-370-450-454-472-300700-
...C-MAN AND BUOY OBSERVATIONS...

STATION/POSITION TIME  TEMP    WIND        PRES    WAVE   SWELL
                       AIR SEA DIR/SP/G            HT/PER HT/PER/DIR
                 (UTC) (F)     (DEG/KT/KT) (MB)    (FT/S) (FT/S/D)
BUOY 41004       0550   77 78   90/ 14/ 16 1020.2F   5/ 9   3/ 9
BUOY 41008       0550   76 78   80/  4/  6 1020.1F   4/ 9   3/110/ 9
FOLLY BEACH CMAN 0600   76     100/ 13/ 15 1020.7F
CAPERS NEARSHORE 0508   77     110/ 12/ 16 1021.2F
FRIPP NEARSHORE  0500   77      90/ 12/ 14 1020.5F


STATION/POSITION TIME  TEMP    WIND        PRES    WAVE   SWELL
                       AIR SEA DIR/SP/G            HT/PER HT/PER/DIR
                 (UTC) (F)     (DEG/KT/KT) (MB)    (FT/S) (FT/S/D)
5E ST. MARYS GA  0521      80                N/A     3/ 9
FRYING PAN BUOY  0550   77 75  140/ 12/ 14 1022.0F   4/ 8   3/100/ 8
BUOY 41025       0550   76 80  140/ 10/ 12 1022.7F   4/ 8   3/100/ 8
CAPE LOOKOUT NC  0600   75     130/  8/  9 1021.9F
BUOY 41002       0550   74 74   90/ 14/ 16 1021.1F   6/ 9   5/ 80/ 9
BUOY 41010       0520   78 79   80/ 12/ 14 1018.6F
ST AUGUSTINE FL  0600   76 79   40/  8/  9 1019.8F


$$


USA.gov is the U.S. government's official web portal to all federal, state and local government web resources and services.